Regional Weather Roundup
Issued by NWS

Home | Current Version | Previous Version | Graphics & Text | Print | Product List | Glossary On
Versions: 1 2 3 4 5 6 7 8 9 10 11 12 13 14 15 16 17 18 19 20 21 22 23 24 25 26 27 28 29 30 31 32 33 34 35 36 37 38 39 40 41 42 43 44 45 46 47 48 49 50
000
ASUS43 KMKX 011200
RWRWI

WISCONSIN REGIONAL WEATHER ROUNDUP
NATIONAL WEATHER SERVICE MILWAUKEE/SULLIVAN WI
700 AM CDT SUN MAY 01 2016

NOTE: "FAIR" INDICATES FEW OR NO CLOUDS BELOW 12,000 FEET WITH NO
SIGNIFICANT WEATHER AND/OR OBSTRUCTIONS TO VISIBILITY.

WIZ001-002-006>008-014>016-023>028-011300-
NORTHWEST WISCONSIN

CITY           SKY/WX    TMP DP  RH WIND       PRES   REMARKS
SUPERIOR ARPT  SUNNY     38  31  76 NE7       30.24S WCI  32
ASHLAND        CLOUDY    39  36  89 NE9       30.23R WCI  33
6HR MIN TEMP:  35; 6HR MAX TEMP:  40;

HAYWARD        CLOUDY    37  34  89 NE14      30.19R WCI  28
6HR MIN TEMP:  34; 6HR MAX TEMP:  37;

SIREN          MOCLDY    37  33  84 N7        30.19S WCI  32
CUMBERLAND     CLOUDY    36  32  87 NE10      30.16R WCI  28
RICE LAKE      CLOUDY    39  34  80 N9        30.16S WCI  33
CHETEK         CLOUDY    40  35  80 NE6       30.15R
LADYSMITH      CLOUDY    38  34  84 N7        30.16R WCI  33
EAU CLAIRE     NOT AVBL
MENOMONIE      CLOUDY    42  33  71 N8        30.13S
NEW RICHMOND   PTCLDY    40  33  76 NE9       30.15R WCI  33
OSCEOLA        MOCLDY    39  33  78 N7        30.19R WCI  34
$$

WIZ003>005-009-010-017-018-011300-
NORTH CENTRAL WISCONSIN

CITY           SKY/WX    TMP DP  RH WIND       PRES   REMARKS
MANITOWISH WTR CLOUDY    36  36 100 NE7       30.15R WCI  31
ARBOR VITAE    CLOUDY    37  35  91 N6        30.13S WCI  33
WOODRUFF       CLOUDY    37  35  91 N6        30.13S WCI  33
RHINELANDER    MOSUNNY   37  33  85 VRB5      30.13R WCI  33
6HR MIN TEMP:  36; 6HR MAX TEMP:  39;

EAGLE RIVER    CLOUDY    35  34  96 NE8       30.13R WCI  29
LAND O LAKES   CLOUDY    37  35  94 N7        30.15R WCI  31
PHILLIPS       PTSUNNY   36  34  93 N7        30.14R WCI  30
TOMAHAWK       CLOUDY    36  32  88 N3        30.13R
MEDFORD        CLOUDY    38  34  85 NE9       30.10S WCI  31
MERRILL        CLOUDY   N/A N/A N/A N7        30.11S
$$

WIZ029-030-035-036-043>047-011300-
CENTRAL WISCONSIN

CITY           SKY/WX    TMP DP  RH WIND       PRES   REMARKS
WAUSAU         MOSUNNY   44  33  65 N5        30.08S
6HR MIN TEMP:  44; 6HR MAX TEMP:  48;

MOSINEE        PTSUNNY   41  34  75 N8        30.09S
MARSHFIELD     CLOUDY    43  33  68 NE12      30.08R
6HR MIN TEMP:  43; 6HR MAX TEMP:  48;

STEVENS POINT  LGT RAIN  41  32  70 N6        30.09R
WAUPACA        DRIZZLE   45  35  69 N6        30.08R
WAUTOMA        CLOUDY    43  35  73 NE7       30.07R
6HR MIN TEMP:  42; 6HR MAX TEMP:  46;

WISC RAPIDS    CLOUDY    44  33  65 NE7       30.08S
6HR MIN TEMP:  44; 6HR MAX TEMP:  48; 6HR PCP: TRACE;

CAMP DOUGLAS   NOT AVBL
$$

WIZ011>013-019>022-031-037>040-048>050-011300-
NORTHEAST WISCONSIN

CITY           SKY/WX    TMP DP  RH WIND       PRES   REMARKS
ANTIGO         CLOUDY    39  34  82 CALM      30.09S
SHAWANO        CLOUDY    45  35  67 NE9       30.09S
OCONTO         CLOUDY    42  37  84 N5        30.09S
STURGEON BAY   CLOUDY    43  36  75 N6        30.11S
6HR MIN TEMP:  41; 6HR MAX TEMP:  45;

GREEN BAY      LGT RAIN  43  38  82 NE13      30.08R
6HR MIN TEMP:  42; 6HR MAX TEMP:  45; 6HR PCP:  0.02;

MANITOWOC      NOT AVBL
APPLETON       DRIZZLE   43  34  70 NE14      30.05R
CLINTONVILLE   CLOUDY    43  32  65 N5        30.09R
OSHKOSH        CLOUDY    44  37  76 NE15G23   30.05R
6HR MIN TEMP:  43; 6HR MAX TEMP:  45; 6HR PCP:  0.01;

$$

WIZ032>034-041-042-053>061-011300-
SOUTHWEST WISCONSIN

CITY           SKY/WX    TMP DP  RH WIND       PRES   REMARKS
LA CROSSE      CLOUDY    47  35  63 N6        30.08R
6HR MIN TEMP:  44; 6HR MAX TEMP:  48; 6HR PCP: TRACE;

SPARTA         CLOUDY    45  35  66 NE7       30.07S
VIROQUA        CLOUDY    42  37  82 NE13      30.04R
BOSCOBEL       CLOUDY    46  38  73 NE6       30.05R
6HR MIN TEMP:  46; 6HR MAX TEMP:  47;

PRAIRIE DU CHI CLOUDY    45  36  69 N3        30.03R
PLATTEVILLE    CLOUDY    42  42  98 N13       30.00R
$$

WIZ056-057-062-063-064-067-068-011300-
SOUTH CENTRAL WISCONSIN

CITY           SKY/WX    TMP DP  RH WIND       PRES   REMARKS
REEDSBURG      CLOUDY    42  37  81 NE6       30.05R
BARABOO/DELLS  CLOUDY    42  35  78 NE10      30.05R
LONE ROCK      NOT AVBL
MINERAL POINT  CLOUDY    43  41  93 NE13      30.01R FOG
MADISON        DRIZZLE   42  40  92 NE13      30.02R FOG
6HR MIN TEMP:  42; 6HR MAX TEMP:  44; 6HR PCP: TRACE;

MIDDLETON      CLOUDY    43  40  90 NE12      30.03R
WATERTOWN      CLOUDY    42  42 100 NE10      30.02R
MONROE         CLOUDY    41  41 100 NE15G23   29.98R
JANESVILLE     CLOUDY    45  45 100 NE15G21   29.98R FOG
$$

WIZ051-052-058>065-066-070>072-011300-
SOUTHEAST WISCONSIN

CITY           SKY/WX    TMP DP  RH WIND       PRES   REMARKS
MILWAUKEE      LGT RAIN  41  40  96 NE16G25   30.00R VSB 1
6HR MIN TEMP:  41; 6HR MAX TEMP:  44; 6HR PCP:  0.09;

WAUKESHA       RAIN      39  39 100 NE9G16    30.02R FOG     WCI  33
MILWAUKEE/TIMM RAIN      43  39  87 NE15G21   30.02R
RACINE         LGT RAIN  42  40  92 N15G22    30.01R VSB 1
6HR MIN TEMP:  42; 6HR MAX TEMP:  43; 6HR PCP:  0.03;

BURLINGTON     CLOUDY    41  41  99 NE13      29.98R FOG
KENOSHA        CLOUDY    43  41  93 NE12      29.99R FOG
6HR MIN TEMP:  42; 6HR MAX TEMP:  45; 6HR PCP:  0.04;

FOND DU LAC    CLOUDY    44  37  76 NE13      30.06R
6HR MIN TEMP:  44; 6HR MAX TEMP:  45; 6HR PCP: TRACE;

SHEBOYGAN      CLOUDY    42  37  82 N10       30.05R
6HR MIN TEMP:  41; 6HR MAX TEMP:  43;

WEST BEND      CLOUDY    41  39  93 NE6       30.03R FOG
JUNEAU         CLOUDY    41  38  90 N8        30.04R
$$

LSZ147-162-011300-
LAKE SUPERIOR

STATION/POSITION TIME  TEMP    WIND        PRES    WAVE
                       AIR SEA DIR/SP/G            HT/PER
                 (UTC) (F)     (DEG/KT/KT) (MB)    (FT/S)
W MID LAKE BUOY  1050   38 37   30/ 14/ 16 1024.0F   2/ 4
DEVILS ISLAND    1100   39      40/ 17/ 18 1024.5R
PORT WING        0940   34     100/  2/  4 1023.7S
SAXON HARBOR     1100   39      50/ 11/ 13 1022.4S
$$

LMZ867-665-643>646-011300-
LAKE MICHIGAN

STATION/POSITION TIME  TEMP    WIND        PRES    WAVE
                       AIR SEA DIR/SP/G            HT/PER
                 (UTC) (F)     (DEG/KT/KT) (MB)    (FT/S)
CHAMBERS ISLAND  1100   42     350/  8/  9 1019.3S
N MID LAKE BUOY  1050   40 38  350/  8/ 10 1018.7R   1/ 3
NORTHPORT PIER   1100   40     310/  7/  8 1019.0S
ALGOMA LAKESHORE 1015           10/ 14/ 18   N/A
KEWAUNEE LAKESHO 1100   42      20/ 12/ 18 1017.4R
SHEBOYGAN LAKESH 1100   42     360/ 17/ 18 1017.5S
PORT WASHINGTON  1100   43      20/ 10/ 15 1017.3R
S MID LAKE BUOY  1050   41 40   40/ 14/ 16 1014.3R   2/ 5
KENOSHA   LAKESH 1100   42      10/ 18/ 23 1014.9R
$$

TC  - TEMPERATURE IN CELSIUS
VSB - VISIBILITY IN STATUTE MILES
WCI - WIND CHILL INDEX
HX  - HEAT INDEX





USA.gov is the U.S. government's official web portal to all federal, state and local government web resources and services.